Helicity
106 159 140 98 101 111 96 57 27 55 79 74 26 -109 -0 4 15 27 46 37 11 59 10 116 224 391 445 525 533 484 499 438 506 481 504 503 446 432 371 340 316 297 288 278
104 88 55 68 68 81 94 69 44 29 41 52 49 -25 22 13 -12 19 38 -1 103 198 211 156 324 118 442 533 514 534 492 485 487 467 456 511 525 527 423 425 387 332 333 338
89 74 65 62 63 57 61 67 37 40 49 56 93 22 63 76 49 211 158 149 210 190 211 317 196 356 208 438 524 579 548 530 497 443 493 540 633 567 486 404 386 383 385 357
70 25 65 128 143 85 84 84 65 102 150 99 230 102 25 88 254 156 170 338 392 501 443 340 247 268 367 210 399 468 558 548 510 501 491 533 576 557 502 485 505 477 402 368
118 99 92 87 90 119 117 84 146 230 233 186 204 284 178 256 301 415 502 507 595 620 688 756 662 286 280 493 271 349 416 444 548 545 504 521 471 421 497 521 481 432 415 343
84 89 92 76 90 109 131 144 177 240 284 318 258 328 174 354 398 380 520 704 722 703 741 746 760 817 593 347 493 328 374 463 502 531 496 477 448 412 488 420 427 462 431 347
115 102 107 148 154 205 264 289 304 344 469 397 277 319 435 388 403 444 492 539 513 483 465 550 795 967 845 830 467 493 249 377 435 467 487 440 466 424 428 411 410 469 426 392
97 115 173 199 188 186 251 283 394 350 372 383 319 430 435 259 303 344 454 500 566 125 38 54 179 328 625 837 955 469 324 231 314 420 453 474 456 399 354 384 376 371 362 363
212 194 233 296 188 204 306 271 254 342 345 387 395 317 218 246 362 446 453 322 154 131 72 55 82 42 -0 75 226 500 594 270 259 330 447 352 311 215 319 363 285 313 301 330
257 256 235 254 236 261 262 233 333 360 468 447 411 354 316 184 203 212 212 181 174 156 93 72 84 31 29 62 138 447 401 603 323 217 104 156 239 286 265 258 281 287 290 305
354 317 323 321 355 307 341 375 352 326 350 394 355 295 219 97 48 90 84 59 61 36 -6 -9 -37 -85 -82 -3 45 2 -7 50 53 81 71 63 103 213 257 349 341 264 290 311
326 374 391 341 295 180 169 229 262 402 393 353 361 306 118 75 7 -40 101 224 120 107 20 -69 -86 -101 -100 -77 -68 10 26 82 -125 82 170 101 69 97 124 201 224 264 261 279
336 455 482 429 329 288 339 281 276 307 315 326 320 251 139 45 61 31 126 60 48 72 47 -44 -67 -116 -64 -68 -42 16 73 69 96 125 99 78 110 104 91 107 156 228 278 325
238 320 392 388 366 309 317 285 199 190 271 195 187 104 63 99 43 65 -11 -4 35 38 25 47 47 44 42 24 12 23 50 68 89 185 140 79 67 111 149 188 245 286 315 380
263 315 270 207 185 195 220 206 155 167 201 207 142 113 59 -4 147 74 24 39 44 54 65 58 85 125 126 65 55 88 120 79 41 83 119 57 70 54 102 198 251 251 315 380
199 272 243 216 150 140 148 152 179 137 134 107 78 143 163 91 53 70 72 37 73 155 165 175 161 133 72 54 80 71 96 168 150 56 52 103 74 107 148 242 269 292 281 299
139 155 147 184 72 63 121 100 49 71 71 77 121 87 35 50 57 59 67 69 94 81 82 106 101 105 118 125 111 98 87 127 205 164 109 77 111 149 219 255 304 305 349 389
159 156 156 170 130 241 113 6 11 76 83 89 101 110 87 54 62 59 20 117 152 164 171 154 149 144 150 108 107 80 64 137 154 209 122 52 42 131 228 293 309 349 372 380
120 183 222 253 200 153 105 79 57 89 138 79 89 88 75 67 81 71 80 57 42 51 93 111 102 102 110 109 75 62 64 63 104 138 103 64 56 60 210 327 403 384 379 380
141 122 187 200 184 189 94 81 -19 -15 88 120 153 134 142 131 99 78 52 41 42 33 38 57 71 62 67 64 60 67 134 130 108 87 43 21 22 29 159 330 405 354 360 414
107 100 85 92 94 81 57 75 79 6 29 104 62 40 43 65 105 68 52 47 82 85 72 71 87 97 86 69 73 149 156 124 123 82 57 31 -16 19 154 303 411 460 467 432
97 98 117 84 145 135 126 84 68 37 1 42 56 77 89 97 95 90 105 98 94 116 110 93 84 121 109 86 140 167 151 162 97 83 26 21 47 111 193 286 369 435 524 547
112 116 135 168 197 143 95 91 77 96 123 113 136 99 139 134 118 127 94 95 87 81 97 90 107 88 101 122 155 170 135 122 86 53 24 17 100 164 189 250 334 427 496 606
131 129 153 158 165 99 2 -20 -21 4 3 -16 -39 -40 -54 -47 86 92 88 61 90 112 98 62 100 109 104 119 144 117 117 113 59 71 50 69 109 139 189 249 301 399 535 604
115 46 27 10 4 -49 2 -56 -51 -100 -120 -107 -94 15 48 81 75 70 67 92 94 71 50 88 108 84 81 160 141 105 72 58 74 75 91 113 121 135 202 237 270 363 387 392
-5 -59 -50 85 1 -27 -20 35 7 29 31 47 82 75 83 67 2 71 75 111 109 79 48 78 50 107 84 111 86 92 52 46 86 126 135 135 139 161 181 274 271 249 228 188
Wind_Speed
46 41 38 39 41 45 52 50 47 66 76 79 75 55 64 74 77 82 83 70 71 68 64 37 35 36 40 39 41 43 43 42 39 40 45 54 58 58 57 54 50 46 44 42
52 43 50 52 55 58 59 58 60 72 70 73 73 56 80 75 70 62 61 60 63 68 69 63 67 45 41 45 47 49 50 45 44 43 43 46 51 56 57 57 53 49 48 46
51 53 63 60 58 56 60 64 76 78 78 75 78 72 72 65 70 56 55 53 57 62 66 71 74 76 50 50 47 49 53 52 49 45 42 42 44 49 51 55 56 55 50 49
53 55 50 56 61 64 74 68 76 79 79 85 59 92 93 66 52 55 57 60 61 63 64 67 71 76 74 61 55 55 52 52 50 44 45 46 45 54 56 54 56 57 52 50
43 54 59 61 59 57 69 62 59 65 70 78 77 73 85 70 71 66 66 67 65 62 63 69 70 69 71 74 56 54 57 56 53 46 44 48 51 50 51 51 52 52 52 54
55 59 64 68 73 62 74 76 71 67 69 89 86 70 96 74 64 66 62 64 65 63 65 66 67 70 70 70 66 54 56 57 53 51 47 49 49 49 50 51 52 50 51 52
58 57 54 57 68 56 61 68 84 87 86 100 81 81 87 63 57 58 61 58 61 63 68 71 72 71 71 68 64 66 59 60 56 54 51 47 48 52 51 50 49 49 50 53
64 71 53 53 57 65 67 62 71 94 94 93 79 86 77 44 43 48 53 58 65 74 76 77 75 70 71 72 66 63 61 77 62 59 56 47 45 47 46 49 46 45 46 47
64 68 52 63 59 61 65 71 65 82 84 98 91 82 65 50 52 59 61 63 65 69 72 71 68 67 74 77 66 63 66 67 59 61 57 47 42 44 36 39 41 41 41 43
61 86 69 68 60 63 66 64 85 79 104 116 96 96 91 68 62 59 61 64 69 72 72 72 69 67 60 57 59 66 69 70 56 54 48 45 41 42 32 38 35 37 39 40
60 69 79 75 70 74 69 76 70 72 75 100 112 95 62 61 59 59 59 66 69 72 70 72 71 62 60 60 56 58 67 71 67 58 50 41 44 38 37 36 40 40 36 37
51 65 93 88 67 61 63 74 71 88 93 83 89 86 58 58 52 47 61 84 79 74 69 66 68 64 62 61 62 64 58 65 63 65 72 66 56 42 38 38 40 40 37 38
48 66 98 97 77 61 64 55 57 64 64 86 90 78 63 58 61 64 82 84 77 76 71 64 64 67 66 67 67 64 52 51 52 47 43 47 42 48 48 39 33 33 34 35
50 59 75 100 85 72 79 73 64 63 76 82 82 95 96 84 82 80 63 59 66 68 60 59 63 66 68 71 74 73 69 62 54 49 45 50 45 41 46 42 38 31 31 31
51 74 69 72 71 73 75 76 78 83 84 86 93 94 92 85 63 68 69 70 62 60 58 55 54 56 62 65 65 65 65 71 69 59 51 59 53 42 42 39 38 39 33 30
50 70 67 76 67 66 70 70 78 85 84 82 77 82 65 65 68 75 78 71 61 61 61 59 58 61 62 66 70 68 67 68 72 71 68 62 61 50 43 40 37 30 29 27
58 60 63 82 61 65 77 64 67 66 63 68 78 66 64 73 75 81 79 64 61 62 64 65 66 67 70 74 72 73 70 65 70 71 65 58 51 51 41 34 30 31 30 29
54 53 56 75 69 88 66 61 60 70 71 69 66 72 71 70 73 70 47 55 62 65 66 67 71 74 76 74 75 75 73 74 70 65 64 57 57 53 45 39 33 30 28 34
40 50 61 72 77 78 85 74 64 60 74 71 65 67 73 76 72 68 60 66 69 70 74 75 76 78 77 76 74 72 73 69 61 61 61 66 68 58 42 42 33 30 28 30
44 45 53 62 75 78 53 60 71 68 78 57 71 78 84 83 86 83 79 75 78 74 76 80 82 83 81 80 78 69 61 61 64 62 62 64 69 58 49 40 34 32 31 27
57 55 59 59 69 66 55 62 64 70 73 80 92 85 84 85 73 79 88 92 82 81 80 81 84 84 85 86 80 67 59 60 60 62 64 68 68 62 51 41 35 37 35 33
57 58 60 57 62 76 41 69 66 81 98 92 92 89 93 81 86 92 90 87 83 78 80 81 87 86 87 81 67 62 61 59 65 64 68 72 70 66 56 47 45 41 37 36
54 42 58 58 63 65 83 84 89 85 89 95 88 92 84 86 87 85 81 75 76 76 77 75 77 79 70 61 54 55 55 53 57 60 63 63 57 52 45 42 40 39 37 38
49 49 52 62 50 47 34 51 53 51 53 54 45 49 56 63 63 37 41 42 56 65 66 76 66 61 63 59 57 52 46 50 53 60 60 54 50 45 39 33 32 34 36 35
44 36 26 46 47 38 32 37 49 67 51 56 56 44 55 75 74 75 66 68 74 74 78 59 45 44 54 42 46 45 43 44 48 47 47 43 38 36 30 29 27 25 21 16
38 41 44 40 45 50 61 78 86 73 82 83 76 76 75 70 51 75 64 66 72 68 64 47 22 21 3 20 42 40 41 35 33 36 36 30 25 25 22 23 20 13 7 4
Wind_Direction
300 298 288 292 293 297 302 301 296 304 302 301 306 299 312 311 310 307 306 312 308 311 313 289 256 248 240 237 231 225 230 236 240 245 244 245 244 248 248 245 239 232 235 237
296 292 295 297 297 295 296 299 301 306 305 304 305 281 307 310 314 322 319 320 318 314 311 316 310 281 248 236 231 224 223 231 236 242 248 255 247 252 250 249 245 240 241 239
292 295 295 295 298 296 295 297 301 301 305 304 305 301 310 311 312 318 327 327 327 323 318 314 314 304 270 253 240 233 225 227 233 245 253 262 257 255 249 246 246 247 244 244
295 298 296 295 297 295 296 298 297 300 303 301 308 301 303 310 316 322 324 324 325 327 328 324 317 313 301 276 265 256 243 243 243 242 244 247 248 248 253 248 250 250 249 247
296 297 299 300 301 301 300 305 303 304 303 303 299 299 300 304 305 306 315 318 323 329 325 320 320 319 316 302 275 266 261 254 252 242 244 250 253 252 254 250 248 248 250 252
294 294 297 298 300 301 301 300 299 298 298 293 297 293 296 300 299 302 312 318 321 325 322 322 324 319 319 320 304 276 263 255 251 248 245 244 246 249 251 249 251 251 252 254
302 299 302 306 304 310 309 304 299 295 292 291 299 293 291 301 304 304 305 312 319 325 324 318 318 317 320 316 317 306 279 263 257 251 247 244 249 248 245 247 250 249 253 256
299 299 300 308 308 307 307 304 297 297 296 297 300 294 299 303 306 307 310 310 314 312 309 309 308 311 313 314 309 312 309 288 265 262 256 252 262 251 251 251 254 256 256 256
301 299 307 309 308 308 307 302 307 298 296 296 293 295 303 300 302 301 302 306 310 312 310 308 307 311 304 298 304 308 308 320 299 269 252 253 260 256 256 250 255 257 260 260
300 296 299 304 311 310 306 308 300 300 296 292 295 293 295 296 296 297 299 304 310 310 308 308 313 312 320 312 314 313 308 309 316 306 288 282 270 255 259 257 257 258 262 262
305 299 299 307 304 304 308 304 306 304 301 297 296 296 303 298 296 295 299 306 309 310 311 307 308 312 314 319 315 312 307 310 310 303 304 315 285 286 274 266 261 262 262 262
312 307 298 300 309 310 306 302 300 297 298 300 299 297 310 309 304 299 302 305 304 305 307 308 308 311 309 313 314 313 308 308 301 301 293 290 290 297 293 282 277 271 265 264
314 306 301 304 308 310 303 307 305 304 301 295 296 297 315 314 307 303 303 305 303 304 304 305 307 306 309 311 310 308 314 313 311 309 316 308 312 302 291 292 283 278 273 270
311 301 299 297 302 309 303 301 301 300 297 296 290 295 296 300 305 307 307 311 313 310 312 310 309 307 309 309 308 306 304 307 310 303 304 302 308 312 303 297 286 274 272 270
311 301 302 301 300 301 300 298 295 292 292 293 295 296 299 300 307 302 306 314 316 317 319 315 313 312 312 314 321 322 316 306 302 303 299 295 300 307 307 302 294 286 278 270
316 307 308 303 303 302 299 297 295 295 294 296 299 298 308 309 306 302 302 305 308 311 313 315 316 313 310 313 314 315 315 315 310 301 291 297 295 301 302 302 297 289 282 281
308 308 307 301 304 303 299 299 297 298 296 300 297 301 310 309 310 306 305 307 309 309 310 310 311 312 312 311 313 312 309 314 314 306 308 307 308 302 298 296 293 288 281 277
305 304 305 302 304 295 302 307 302 299 297 300 302 303 305 306 308 313 314 315 314 311 310 311 311 310 310 312 311 310 308 305 302 306 303 312 313 307 300 288 284 281 281 277
301 304 304 301 297 299 301 303 306 306 300 303 305 308 307 306 308 303 304 307 310 310 308 307 308 311 312 312 312 310 306 305 307 302 300 303 311 305 301 288 277 275 279 277
323 316 305 305 303 301 310 314 311 308 299 309 310 308 307 307 300 299 301 304 305 307 307 306 305 305 304 306 309 308 309 308 305 305 304 304 306 305 298 286 272 268 269 270
318 315 308 307 304 304 311 315 315 301 304 306 305 306 306 304 303 305 303 301 303 303 302 303 303 302 298 297 299 301 303 303 303 305 302 301 305 303 298 291 281 271 271 266
318 315 310 311 307 306 318 313 310 305 301 304 303 303 302 302 301 302 303 302 303 303 304 305 304 299 297 296 296 297 298 301 296 302 302 298 298 299 293 289 283 278 269 267
317 317 314 311 306 310 306 306 305 307 304 303 304 303 304 303 304 304 304 303 304 306 308 309 309 305 301 297 294 294 299 302 302 304 302 301 304 305 297 287 282 276 270 263
323 321 314 317 315 312 274 259 260 261 261 261 258 259 259 270 314 312 312 310 313 312 313 314 312 312 304 295 293 295 298 304 304 304 304 303 306 304 306 301 289 279 271 265
324 298 245 249 258 257 254 260 291 277 268 267 269 308 313 311 310 310 309 306 304 304 308 317 322 320 312 295 291 289 297 309 310 310 312 310 312 310 317 314 300 290 280 247
230 244 254 253 263 265 274 316 314 324 318 317 319 316 312 310 292 306 304 303 303 305 311 310 254 325 347 300 282 292 304 320 322 320 320 317 324 322 328 325 309 332 285 242